User: anonymous   Login
Location: Bismarck
(46.7731°N, 100.8200°W)
Time: 21:14:30
(UTC-05:00)
Language:

Cosmos 1125 Rocket - Orbit

View from above orbital plane
View from above orbital plane
View from above satellite
View from above satellite

Ground track
Ground track

The orbit data is extracted from the following two-line orbital elements,

1 11511U 79078B   17081.61542500 +.00000047 +00000-0 +24683-4 0  9998
2 11511 074.0349 114.4211 0015264 014.8419 345.3179 14.36756313965929
Epoch (UTC): 22 March 2017 14:46:12
Eccentricity: 0.0015264
inclination: 74.0349°
perigee height: 758 km
apogee height: 780 km
right ascension of ascending node: 114.4211°
argument of perigee: 14.8419°
revolutions per day: 14.36756313
mean anomaly at epoch: 345.3179°
orbit number at epoch: 96592

The dashed part of the orbit path shows where the satellite is in the earth's shadow,  

DLR